N4183N KFLL-KOPF

Flight info

Callsign N4183N
Flight time 0h 25m
Altitude 3000
Route SIZED
Aircraft C182/L-VGDW/C

Departure

Time 2026-05-07 23:08
Airport Fort Lauderdale Hollywood International Airport (KFLL)

Arrival

Time 2026-05-07 23:34
Airport Miami-Opa Locka Executive Airport (KOPF)
Time Latitude Longitude Altitude Speed Heading
2026-05-07 22:58 26.07311 -80.15680 15 ft 0 kts
2026-05-07 23:04 26.07317 -80.15660 15 ft 7 kts 72°
2026-05-07 23:04 26.07368 -80.15647 15 ft 11 kts 338°
2026-05-07 23:04 26.07440 -80.15695 15 ft 14 kts 313°
2026-05-07 23:05 26.07507 -80.15792 15 ft 18 kts 314°
2026-05-07 23:05 26.07566 -80.15910 18 ft 19 kts 269°
2026-05-07 23:05 26.07568 -80.16058 20 ft 19 kts 269°
2026-05-07 23:05 26.07568 -80.16209 21 ft 20 kts 271°
2026-05-07 23:06 26.07570 -80.16366 21 ft 21 kts 270°
2026-05-07 23:06 26.07571 -80.16538 19 ft 23 kts 266°
2026-05-07 23:06 26.07590 -80.16630 17 ft 0 kts 333°
2026-05-07 23:07 26.07615 -80.16638 17 ft 12 kts 354°
2026-05-07 23:07 26.07695 -80.16578 17 ft 27 kts 100°
2026-05-07 23:08 26.07687 -80.16204 42 ft 66 kts 96°
2026-05-07 23:08 26.07671 -80.15649 224 ft 78 kts 97°
2026-05-07 23:08 26.07718 -80.15076 558 ft 69 kts 88°
2026-05-07 23:08 26.07835 -80.14565 794 ft 71 kts 86°
2026-05-07 23:09 26.07966 -80.14028 1012 ft 70 kts 79°
2026-05-07 23:09 26.08084 -80.13487 1227 ft 73 kts 80°
2026-05-07 23:09 26.08200 -80.12926 1443 ft 77 kts 77°
2026-05-07 23:09 26.08030 -80.12386 1704 ft 76 kts 144°
2026-05-07 23:10 26.07543 -80.12248 1991 ft 73 kts 174°
2026-05-07 23:10 26.07010 -80.12179 2088 ft 85 kts 174°
2026-05-07 23:10 26.06367 -80.12091 2103 ft 101 kts 173°
2026-05-07 23:10 26.05658 -80.11988 2106 ft 108 kts 172°
2026-05-07 23:11 26.04885 -80.11833 2030 ft 114 kts 172°
2026-05-07 23:11 26.04108 -80.11723 2010 ft 113 kts 173°
2026-05-07 23:11 26.03338 -80.11635 2022 ft 112 kts 175°
2026-05-07 23:11 26.02573 -80.11583 2078 ft 109 kts 178°
2026-05-07 23:12 26.01817 -80.11547 2121 ft 110 kts 177°
2026-05-07 23:12 26.01027 -80.11509 2087 ft 117 kts 178°
2026-05-07 23:12 26.00184 -80.11466 1982 ft 123 kts 177°
2026-05-07 23:12 25.99379 -80.11731 1897 ft 124 kts 213°
2026-05-07 23:13 25.98904 -80.12463 2002 ft 114 kts 249°
2026-05-07 23:13 25.98794 -80.13294 2119 ft 107 kts 264°
2026-05-07 23:13 25.98744 -80.14159 2061 ft 116 kts 262°
2026-05-07 23:13 25.98657 -80.15091 1823 ft 132 kts 258°
2026-05-07 23:14 25.98595 -80.16008 1849 ft 124 kts 263°
2026-05-07 23:14 25.98550 -80.16924 2001 ft 109 kts 263°
2026-05-07 23:14 25.98552 -80.17729 2151 ft 103 kts 269°
2026-05-07 23:14 25.98567 -80.18528 2247 ft 103 kts 264°
2026-05-07 23:15 25.98552 -80.19340 2299 ft 107 kts 263°
2026-05-07 23:15 25.98484 -80.20221 2170 ft 123 kts 260°
2026-05-07 23:15 25.98408 -80.21190 2064 ft 125 kts 262°
2026-05-07 23:15 25.98362 -80.22132 2092 ft 118 kts 263°
2026-05-07 23:16 25.98339 -80.23021 2141 ft 111 kts 265°
2026-05-07 23:16 25.98325 -80.23878 2133 ft 114 kts 264°
2026-05-07 23:16 25.98285 -80.24790 2040 ft 121 kts 263°
2026-05-07 23:16 25.98236 -80.25744 1943 ft 125 kts 262°
2026-05-07 23:17 25.98174 -80.26705 1907 ft 122 kts 261°
2026-05-07 23:17 25.98156 -80.27624 1992 ft 118 kts 264°
2026-05-07 23:17 25.98149 -80.28566 1890 ft 127 kts 265°
2026-05-07 23:17 25.98135 -80.29575 1724 ft 132 kts 265°
2026-05-07 23:18 25.98158 -80.30448 1990 ft 104 kts 265°
2026-05-07 23:18 25.98182 -80.31238 2107 ft 104 kts 267°
2026-05-07 23:18 25.98159 -80.32091 2060 ft 116 kts 265°
2026-05-07 23:18 25.98131 -80.33019 2035 ft 120 kts 263°
2026-05-07 23:19 25.98121 -80.33945 2019 ft 120 kts 264°
2026-05-07 23:19 25.98116 -80.34860 2019 ft 118 kts 265°
2026-05-07 23:19 25.98112 -80.35765 2047 ft 115 kts 264°
2026-05-07 23:19 25.98090 -80.36642 2060 ft 115 kts 263°
2026-05-07 23:20 25.98051 -80.37547 1993 ft 119 kts 264°
2026-05-07 23:20 25.98031 -80.38464 2017 ft 115 kts 265°
2026-05-07 23:20 25.98020 -80.39322 2120 ft 111 kts 264°
2026-05-07 23:20 25.97985 -80.40217 2082 ft 119 kts 261°
2026-05-07 23:21 25.97907 -80.41152 2042 ft 123 kts 262°
2026-05-07 23:21 25.97830 -80.42083 2018 ft 122 kts 262°
2026-05-07 23:21 25.97757 -80.43022 1984 ft 120 kts 260°
2026-05-07 23:21 25.97550 -80.43892 2034 ft 112 kts 250°
2026-05-07 23:22 25.97323 -80.44712 2078 ft 109 kts 250°
2026-05-07 23:22 25.97109 -80.45509 2085 ft 111 kts 250°
2026-05-07 23:22 25.96887 -80.46372 1971 ft 119 kts 250°
2026-05-07 23:22 25.96616 -80.47237 1986 ft 117 kts 246°
2026-05-07 23:23 25.96382 -80.48076 2026 ft 115 kts 249°
2026-05-07 23:23 25.96167 -80.48938 2015 ft 117 kts 250°
2026-05-07 23:23 25.95951 -80.49830 2010 ft 119 kts 251°
2026-05-07 23:23 25.95738 -80.50715 2020 ft 116 kts 250°
2026-05-07 23:24 25.95538 -80.51556 2084 ft 111 kts 251°
2026-05-07 23:24 25.95344 -80.52402 2044 ft 114 kts 250°
2026-05-07 23:24 25.94938 -80.53131 2001 ft 113 kts 221°
2026-05-07 23:24 25.94252 -80.53606 1837 ft 121 kts 201°
2026-05-07 23:25 25.93458 -80.53744 1724 ft 115 kts 177°
2026-05-07 23:25 25.92671 -80.53721 1651 ft 110 kts 179°
2026-05-07 23:25 25.91886 -80.53701 1628 ft 116 kts 178°
2026-05-07 23:25 25.91100 -80.53597 1685 ft 109 kts 161°
2026-05-07 23:26 25.90451 -80.53131 1665 ft 115 kts 136°
2026-05-07 23:26 25.90107 -80.52319 1663 ft 119 kts 100°
2026-05-07 23:26 25.90225 -80.51416 1687 ft 119 kts 84°
2026-05-07 23:26 25.90407 -80.50497 1585 ft 127 kts 84°
2026-05-07 23:27 25.90610 -80.48656 1687 ft 115 kts 87°
2026-05-07 23:27 25.90652 -80.47747 1677 ft 122 kts 95°
2026-05-07 23:27 25.90651 -80.46794 1639 ft 122 kts 95°
2026-05-07 23:28 25.90625 -80.45864 1669 ft 120 kts 99°
2026-05-07 23:28 25.90598 -80.44942 1656 ft 121 kts 98°
2026-05-07 23:28 25.90594 -80.44007 1652 ft 120 kts 98°
2026-05-07 23:28 25.90590 -80.43077 1623 ft 121 kts 96°
2026-05-07 23:29 25.90631 -80.42175 1704 ft 117 kts 92°
2026-05-07 23:29 25.90678 -80.41250 1624 ft 121 kts 90°
2026-05-07 23:29 25.90724 -80.40349 1668 ft 114 kts 92°
2026-05-07 23:29 25.90800 -80.39482 1670 ft 109 kts 93°
2026-05-07 23:30 25.90820 -80.38715 1650 ft 93 kts 94°
2026-05-07 23:30 25.90873 -80.38013 1641 ft 91 kts 91°
2026-05-07 23:30 25.90950 -80.37317 1604 ft 92 kts 89°
2026-05-07 23:30 25.90992 -80.36621 1430 ft 90 kts 91°
2026-05-07 23:31 25.91023 -80.35962 1283 ft 82 kts 93°
2026-05-07 23:31 25.91029 -80.35333 1146 ft 81 kts 99°
2026-05-07 23:31 25.91000 -80.34696 984 ft 82 kts 101°
2026-05-07 23:31 25.90948 -80.34064 890 ft 79 kts 94°
2026-05-07 23:32 25.91025 -80.33489 863 ft 77 kts 85°
2026-05-07 23:32 25.91120 -80.32903 740 ft 74 kts 88°
2026-05-07 23:32 25.91141 -80.32324 688 ft 77 kts 93°
2026-05-07 23:32 25.91125 -80.31704 605 ft 80 kts 97°
2026-05-07 23:33 25.91136 -80.31108 403 ft 75 kts 84°
2026-05-07 23:33 25.91218 -80.30556 320 ft 72 kts 90°
2026-05-07 23:33 25.91229 -80.30009 201 ft 69 kts 94°
2026-05-07 23:33 25.91239 -80.29493 123 ft 68 kts 91°
2026-05-07 23:34 25.91259 -80.28975 44 ft 66 kts 85°
2026-05-07 23:34 25.91285 -80.28506 18 ft 53 kts 85°
2026-05-07 23:34 25.91300 -80.28140 9 ft 43 kts 89°
2026-05-07 23:34 25.91262 -80.27902 10 ft 22 kts 160°
2026-05-07 23:35 25.91208 -80.27901 9 ft 0 kts 182°
2026-05-07 23:35 25.91196 -80.27901 10 ft 8 kts 181°
2026-05-07 23:35 25.91121 -80.27876 11 ft 16 kts 105°
2026-05-07 23:36 25.91127 -80.27753 13 ft 16 kts 88°
2026-05-07 23:36 25.91133 -80.27622 13 ft 18 kts 86°
2026-05-07 23:36 25.91138 -80.27476 14 ft 19 kts 88°
2026-05-07 23:36 25.91147 -80.27326 17 ft 19 kts 88°
2026-05-07 23:37 25.91154 -80.27175 18 ft 20 kts 87°
2026-05-07 23:37 25.91163 -80.27006 16 ft 23 kts 88°
2026-05-07 23:37 25.91171 -80.26827 17 ft 23 kts 88°
2026-05-07 23:37 25.91180 -80.26645 14 ft 25 kts 87°
2026-05-07 23:38 25.91099 -80.26528 13 ft 22 kts 181°
2026-05-07 23:38 25.90960 -80.26531 16 ft 16 kts 178°
2026-05-07 23:38 25.90947 -80.26572 15 ft 11 kts 42°
2026-05-07 23:38 25.90964 -80.26569 15 ft 1 kts 274°
2026-05-07 23:39 25.90963 -80.26570 15 ft 0 kts 265°